• In Belarus
  • List of Countries
  • For 7 days
  • Water Temperature
  • Satellite Maps
  • Weather Map
  • Weather Widgets
  • user-avatar
    Login

    Hourly Weather Nieradza

    Today, 23 February, Saturday

    Time Temperature Precipitation Wind Pressure Humidity
    00:00 -3°C° 0 mm 2 mps 770 mmHg 55%
    01:00 -3°C° 0 mm 2 mps 770 mmHg 53%
    02:00 -3°C° 0 mm 2 mps 770 mmHg 53%
    03:00 -4°C° 0 mm 2 mps 770 mmHg 53%
    04:00 -4°C° 0 mm 2 mps 770 mmHg 52%
    05:00 -4°C° 0 mm 2 mps 770 mmHg 52%
    06:00 -4°C° 0 mm 2 mps 770 mmHg 52%
    07:00 -4°C° 0 mm 2 mps 770 mmHg 52%
    08:00 -3°C° 0 mm 2 mps 770 mmHg 46%
    09:00 -2°C° 0 mm 2 mps 770 mmHg 39%
    10:00 -1°C° 0 mm 2 mps 770 mmHg 33%
    11:00 +1°C° 0 mm 2 mps 770 mmHg 30%
    12:00 +2°C° 0 mm 2 mps 769 mmHg 26%
    13:00 +3°C° 0 mm 2 mps 769 mmHg 23%
    14:00 +3°C° 0 mm 2 mps 769 mmHg 24%
    15:00 +3°C° 0 mm 2 mps 768 mmHg 25%
    16:00 +3°C° 0 mm 2 mps 768 mmHg 27%
    17:00 +2°C° 0 mm 2 mps 768 mmHg 31%
    18:00 -1°C° 0 mm 2 mps 768 mmHg 36%
    19:00 -2°C° 0 mm 2 mps 768 mmHg 41%
    20:00 -2°C° 0 mm 2 mps 768 mmHg 41%
    21:00 -2°C° 0 mm 2 mps 768 mmHg 41%
    22:00 -2°C° 0 mm 2 mps 768 mmHg 42%
    23:00 0°C° 0 mm 1 mps 767 mmHg 41%

    Tomorrow, 24 February, Sunday

    Time Temperature Precipitation Wind Pressure Humidity
    00:00 0°C° 0 mm 1 mps 767 mmHg 40%
    01:00 0°C° 0 mm 1 mps 767 mmHg 40%
    02:00 0°C° 0 mm 1 mps 767 mmHg 39%
    03:00 +1°C° 0 mm 1 mps 767 mmHg 38%
    04:00 +1°C° 0 mm 1 mps 766 mmHg 37%
    05:00 +1°C° 0 mm 1 mps 766 mmHg 38%
    06:00 +1°C° 0 mm 1 mps 766 mmHg 39%
    07:00 +1°C° 0 mm 1 mps 766 mmHg 39%
    08:00 +2°C° 0 mm 1 mps 766 mmHg 36%
    09:00 +4°C° 0 mm 1 mps 766 mmHg 32%
    10:00 +4°C° 0 mm 2 mps 766 mmHg 29%
    11:00 +5°C° 0 mm 2 mps 766 mmHg 28%
    12:00 +7°C° 0 mm 2 mps 766 mmHg 28%
    13:00 +8°C° 0 mm 2 mps 766 mmHg 27%
    14:00 +8°C° 0 mm 2 mps 766 mmHg 33%
    15:00 +7°C° 0 mm 2 mps 765 mmHg 38%
    16:00 +7°C° 0 mm 2 mps 765 mmHg 44%
    17:00 +6°C° 0 mm 2 mps 765 mmHg 49%
    18:00 +4°C° 0 mm 2 mps 765 mmHg 55%
    19:00 +3°C° 0 mm 2 mps 765 mmHg 60%
    20:00 +2°C° 0 mm 2 mps 765 mmHg 62%
    21:00 +2°C° 0 mm 2 mps 765 mmHg 65%
    22:00 +2°C° 0 mm 2 mps 766 mmHg 67%
    23:00 +1°C° 0 mm 2 mps 766 mmHg 69%

    Day after tomorrow, 25 February, Monday

    Time Temperature Precipitation Wind Pressure Humidity
    00:00 +1°C° 0 mm 2 mps 766 mmHg 71%
    01:00 +1°C° 0 mm 2 mps 766 mmHg 72%
    02:00 +1°C° 0 mm 2 mps 766 mmHg 74%
    03:00 -1°C° 0 mm 2 mps 765 mmHg 76%
    04:00 -1°C° 0 mm 2 mps 765 mmHg 77%
    05:00 -1°C° 0 mm 2 mps 765 mmHg 78%
    06:00 -1°C° 0 mm 2 mps 765 mmHg 80%
    07:00 -1°C° 0 mm 2 mps 765 mmHg 81%
    08:00 +2°C° 0 mm 2 mps 766 mmHg 75%
    09:00 +3°C° 0 mm 2 mps 766 mmHg 70%
    10:00 +5°C° 0 mm 2 mps 766 mmHg 64%
    11:00 +6°C° 0 mm 2 mps 766 mmHg 63%
    12:00 +8°C° 0 mm 2 mps 766 mmHg 61%
    13:00 +9°C° 0 mm 2 mps 766 mmHg 60%
    14:00 +9°C° 0 mm 2 mps 765 mmHg 61%
    15:00 +10°C° 0 mm 2 mps 765 mmHg 62%
    16:00 +10°C° 0 mm 2 mps 764 mmHg 64%
    17:00 +8°C° 0 mm 2 mps 764 mmHg 69%
    18:00 +7°C° 0 mm 2 mps 764 mmHg 74%
    19:00 +6°C° 0 mm 2 mps 764 mmHg 80%
    20:00 +5°C° 0 mm 2 mps 764 mmHg 79%
    21:00 +5°C° 0 mm 2 mps 764 mmHg 78%
    22:00 +4°C° 0 mm 2 mps 764 mmHg 77%
    23:00 +3°C° 0 mm 3 mps 763 mmHg 78%

    26 February, Tuesday

    Time Temperature Precipitation Wind Pressure Humidity
    00:00 +2°C° 0 mm 3 mps 763 mmHg 79%
    01:00 +2°C° 0 mm 3 mps 763 mmHg 80%
    02:00 +2°C° 0 mm 3 mps 763 mmHg 80%
    03:00 +2°C° 0 mm 3 mps 763 mmHg 81%
    04:00 +1°C° 0 mm 3 mps 762 mmHg 81%
    05:00 +1°C° 0 mm 3 mps 762 mmHg 81%
    06:00 +1°C° 0 mm 3 mps 762 mmHg 81%
    07:00 +1°C° 0 mm 3 mps 761 mmHg 81%
    08:00 +3°C° 0 mm 4 mps 761 mmHg 74%
    09:00 +4°C° 0 mm 4 mps 762 mmHg 67%
    10:00 +6°C° 0 mm 4 mps 762 mmHg 61%
    11:00 +7°C° 0 mm 4 mps 761 mmHg 56%
    12:00 +10°C° 0 mm 4 mps 761 mmHg 52%
    13:00 +11°C° 0 mm 4 mps 761 mmHg 47%
    14:00 +11°C° 0 mm 4 mps 760 mmHg 48%
    15:00 +11°C° 0 mm 4 mps 760 mmHg 49%
    16:00 +11°C° 0 mm 4 mps 760 mmHg 50%
    17:00 +10°C° 0 mm 3 mps 760 mmHg 57%
    18:00 +8°C° 0 mm 3 mps 760 mmHg 64%
    19:00 +7°C° 0 mm 2 mps 761 mmHg 71%
    20:00 +6°C° 0 mm 2 mps 761 mmHg 75%
    21:00 +6°C° 0 mm 2 mps 761 mmHg 78%
    22:00 +5°C° 0 mm 2 mps 761 mmHg 82%
    23:00 +5°C° 0 mm 2 mps 761 mmHg 84%

    27 February, Wednesday

    Time Temperature Precipitation Wind Pressure Humidity
    00:00 +5°C° 0 mm 2 mps 760 mmHg 87%
    01:00 +4°C° 0 mm 2 mps 760 mmHg 90%
    02:00 +4°C° 0 mm 2 mps 760 mmHg 91%
    03:00 +4°C° 0 mm 2 mps 760 mmHg 92%
    04:00 +4°C° 0 mm 1 mps 760 mmHg 92%
    05:00 +4°C° 0 mm 1 mps 760 mmHg 93%
    06:00 +3°C° 0 mm 2 mps 760 mmHg 94%
    07:00 +3°C° 0 mm 2 mps 760 mmHg 94%
    08:00 +4°C° 0 mm 2 mps 759 mmHg 88%
    09:00 +6°C° 0 mm 2 mps 759 mmHg 82%
    10:00 +7°C° 0 mm 2 mps 759 mmHg 76%
    11:00 +9°C° 0 mm 3 mps 759 mmHg 70%
    12:00 +10°C° 0 mm 3 mps 758 mmHg 63%
    13:00 +12°C° 0 mm 3 mps 758 mmHg 57%
    14:00 +12°C° 0 mm 3 mps 757 mmHg 56%
    15:00 +12°C° 0 mm 3 mps 756 mmHg 56%
    16:00 +13°C° 0 mm 3 mps 756 mmHg 55%
    17:00 +11°C° 0 mm 3 mps 755 mmHg 62%
    18:00 +10°C° 0 mm 3 mps 755 mmHg 70%
    19:00 +8°C° 0 mm 3 mps 754 mmHg 77%
    20:00 +8°C° 0 mm 3 mps 754 mmHg 77%
    21:00 +8°C° 0 mm 3 mps 754 mmHg 76%
    22:00 +7°C° 0 mm 3 mps 753 mmHg 76%
    23:00 +6°C° 0 mm 4 mps 753 mmHg 75%

    28 February, Thursday

    Time Temperature Precipitation Wind Pressure Humidity
    00:00 +7°C° 0 mm 4 mps 752 mmHg 74%
    01:00 +7°C° 0 mm 5 mps 752 mmHg 73%
    02:00 +6°C° 0 mm 5 mps 751 mmHg 75%
    03:00 +6°C° 0 mm 5 mps 751 mmHg 76%
    04:00 +6°C° 0 mm 5 mps 750 mmHg 77%
    05:00 +6°C° 0 mm 5 mps 750 mmHg 79%
    06:00 +6°C° 0 mm 5 mps 750 mmHg 80%
    07:00 +5°C° 0 mm 5 mps 750 mmHg 81%
    08:00 +5°C° 0 mm 6 mps 750 mmHg 78%
    09:00 +7°C° 0 mm 6 mps 750 mmHg 76%
    10:00 +8°C° 0 mm 6 mps 750 mmHg 73%
    11:00 +9°C° 0 mm 6 mps 749 mmHg 68%
    12:00 +10°C° 0 mm 6 mps 749 mmHg 63%
    13:00 +11°C° 0 mm 6 mps 749 mmHg 57%
    14:00 +11°C° 0 mm 6 mps 749 mmHg 57%
    15:00 +11°C° 0 mm 6 mps 748 mmHg 57%
    16:00 +11°C° 0 mm 6 mps 748 mmHg 56%
    17:00 +10°C° 0 mm 5 mps 748 mmHg 62%
    18:00 +8°C° 0 mm 4 mps 748 mmHg 69%
    19:00 +8°C° 0 mm 3 mps 749 mmHg 75%
    20:00 +7°C° 0 mm 3 mps 749 mmHg 78%
    21:00 +7°C° 0 mm 3 mps 748 mmHg 81%
    22:00 +5°C° 0 mm 3 mps 748 mmHg 84%
    23:00 +5°C° 0 mm 3 mps 748 mmHg 87%
    Show more